Long Lake, NY (12847)

12:21 PM EST on February 13, 2016 (GMT -0500)
Adirondack Acres | | Change Station
CLOSE
Current Station
Personal Weather Station
Location: Long Lake, NY
Elevation: 1650 ft
Nearby Weather Stations
Active Advisory: Wind Chill Warning

Elev 1650 ft 43.98 °N, 74.43 °W | Updated 11 seconds ago

Mostly Cloudy
Mostly Cloudy
-11.4 °F
Feels Like -25 °F
N
5.8
Wind Variable Wind from SW
Gusts 8.3 mph

Today
High -- | Low -- °F
--% Chance of Precip.
Yesterday
High -- | Low -- °F
Precip. -- in
Pressure 30.05 in
Visibility 3.0 miles
Clouds Overcast 1900 ft
Windchill -25 °F
Dew Point -27 °F
Humidity 45%
Rainfall 0.00 in
Snow Depth Not available.
7:00 AM 5:24 PM
Waxing Crescent, 32% visible
METAR KSLK 131651Z AUTO 27011G19KT 3SM HZ OVC019 M26/M32 A2991 RMK AO2 SLP175 T12611317 $
Pressure 30.05 in
Visibility 3.0 miles
Clouds Overcast 1900 ft
Windchill -25 °F
Dew Point -27 °F
Humidity 45%
Rainfall 0.00 in
Snow Depth Not available.
7:00 AM 5:24 PM
Waxing Crescent, 32% visible
METAR KSLK 131651Z AUTO 27011G19KT 3SM HZ OVC019 M26/M32 A2991 RMK AO2 SLP175 T12611317 $

10-Day Weather Forecast

Almanac

Astronomy

Feb. 13, 2016 Rise Set
Actual Time
Civil Twilight
Nautical Twilight
Astronomical Twilight
Moon
Length of Visible Light
Length of Day
Tomorrow will be .
, % of the Moon is Illuminated

Today's Extremes

State Highs State Lows

Community

WunderPhotos

Upload Photos

1,892,620 photos uploaded!

WunderBlog® & News

Nearby

Air Quality

  Air Quality AQ Index Pollutant
Not available.

Snow Depth

Station Depth Elevation

Earthquake Activity

City Distance Mag. Time & Date
Minimum magnitude displayed is 2.5.

Coastal Water Temperatures

Place Temperature

Stations

Nearby Weather Stations

Station Location Temp. Windchill Dew Point Humidity Wind Precip. Elev Updated Type
                   

Watches & Warnings

Wind Chill Warning
Issued: 4:50 AM EST Feb. 13, 2016 – National Weather Service

... Wind chill warning remains in effect until 1 PM EST Sunday...

* locations... western and southern Adirondacks... Schoharie
valley... eastern Catskills... western Mohawk Valley...
helderbergs and southern Vermont.

* Hazard types... dangerous to potentially life threatening wind
chills.

* Wind chill readings... 30 to 50 below zero at times.

* Timing... through early Sunday afternoon.

* Impacts... wind chills will reach dangerous to potentially life
threatening levels. Frigid temperatures have the potential to
result in frozen pipes... frostbite and hypothermia in a short
amount of time.

* Winds... northwest 15 to 25 mph with gusts up to 45 mph.

* Temperatures... 15 below zero to 30 below zero by late tonight.

Precautionary/preparedness actions...

A wind chill warning means the combination of very cold air and
strong winds will create dangerously low wind chill values. This
will result in frost bite and lead to hypothermia or death if
precautions are not taken.